Weather History for KCGE - August, 2013

Change the Weather History Date:

Friday, August 30, 2013

  Actual Average (KESN) Record (KESN)
Temperature  
Mean Temperature 71 °F -  
Max Temperature 80 °F 88 °F 95 °F (1948)
Min Temperature 62 °F 63 °F 48 °F (1968)
Cooling Degree Days 6    
Growing Degree Days 21 (Base 50)    
Moisture  
Dew Point 66 °F    
Average Humidity 82    
Maximum Humidity 100    
Minimum Humidity 65    
Precipitation  
Precipitation 0.00 in - - ()
Sea Level Pressure  
Sea Level Pressure 29.99 in    
Wind  
Wind Speed 2 mph (SSW)    
Max Wind Speed 8 mph    
Max Gust Speed -    
Visibility 10 miles    
Events      
Averages and records for this station are not official NWS values.
T = Trace of Precipitation, MM = Missing Value Source: NWS Daily Summary

Daily Weather History Graph

Daily Weather History Graph

Search for Another Location

Airport or City:

Trip Planner

Search our weather history database for the weather conditions in past years. The results will help you decide how hot, cold, wet, or windy it might be!

Date:

Astronomy

Aug. 30, 2013 Rise Set
Actual Time 6:31 AM EDT 7:36 PM EDT
Civil Twilight 6:04 AM EDT 8:03 PM EDT
Nautical Twilight 5:32 AM EDT 8:36 PM EDT
Astronomical Twilight 4:58 AM EDT 9:10 PM EDT
Moon 1:10 AM EDT (8/30) 3:48 PM EDT (8/30)
Length of Visible Light 13h 59m
Length of Day
13h 04m
Waning Crescent, 29% of the Moon is Illuminated
Aug 30
Waning Crescent
Sep 5
New
Sep 12
First Quarter
Sep 19
Full
Sep 26
Last Quarter

Hourly Weather History & Observations

Time (EDT) Temp. Heat Index Dew Point Humidity Pressure Visibility Wind Dir Wind Speed Gust Speed Precip Events Conditions
12:11 AM 64.4 °F - 62.6 °F 94% 30.02 in 10.0 mi Calm Calm - N/A   Clear
12:31 AM 64.4 °F - 62.6 °F 94% 30.02 in 7.0 mi Calm Calm - N/A   Clear
12:51 AM 62.6 °F - 62.6 °F 100% 30.02 in 10.0 mi Calm Calm - N/A   Clear
1:11 AM 62.6 °F - 62.6 °F 100% 30.02 in 10.0 mi Calm Calm - N/A   Clear
1:32 AM 62.6 °F - 62.6 °F 100% 30.01 in 7.0 mi Calm Calm - N/A   Clear
1:52 AM 62.6 °F - 62.6 °F 100% 30.02 in 7.0 mi Calm Calm - N/A   Clear
2:12 AM 62.6 °F - 60.8 °F 94% 30.02 in 10.0 mi Calm Calm - N/A   Clear
2:32 AM 62.6 °F - 60.8 °F 94% 30.02 in 7.0 mi Calm Calm - N/A   Clear
2:52 AM 62.6 °F - 60.8 °F 94% 30.02 in 7.0 mi Calm Calm - N/A   Clear
3:12 AM 62.6 °F - 60.8 °F 94% 30.02 in 10.0 mi Calm Calm - N/A   Clear
3:32 AM 62.6 °F - 60.8 °F 94% 30.02 in 7.0 mi Calm Calm - N/A   Clear
3:52 AM 62.6 °F - 60.8 °F 94% 30.02 in 10.0 mi Calm Calm - N/A   Clear
4:12 AM 62.6 °F - 60.8 °F 94% 30.03 in 10.0 mi Calm Calm - N/A   Scattered Clouds
4:32 AM 62.6 °F - 60.8 °F 94% 30.03 in 10.0 mi Calm Calm - N/A   Mostly Cloudy
4:52 AM 64.4 °F - 62.6 °F 94% 30.02 in 10.0 mi Calm Calm - N/A   Overcast
5:12 AM 64.4 °F - 62.6 °F 94% 30.03 in 7.0 mi Calm Calm - N/A   Mostly Cloudy
5:32 AM 62.6 °F - 62.6 °F 100% 30.02 in 7.0 mi Calm Calm - N/A   Scattered Clouds
5:52 AM 62.6 °F - 60.8 °F 94% 30.03 in 10.0 mi Calm Calm - N/A   Clear
6:12 AM 62.6 °F - 60.8 °F 94% 30.03 in 10.0 mi Calm Calm - N/A   Clear
6:32 AM 62.6 °F - 60.8 °F 94% 30.03 in 10.0 mi Calm Calm - N/A   Clear
6:52 AM 62.6 °F - 60.8 °F 94% 30.04 in 10.0 mi Calm Calm - N/A   Scattered Clouds
7:12 AM 62.6 °F - 62.6 °F 100% 30.03 in 10.0 mi Calm Calm - N/A   Clear
7:32 AM 64.4 °F - 62.6 °F 94% 30.03 in 10.0 mi Calm Calm - N/A   Clear
7:52 AM 68.0 °F - 64.4 °F 88% 30.03 in 10.0 mi Calm Calm - N/A   Clear
8:12 AM 69.8 °F - 68.0 °F 94% 30.04 in 10.0 mi Calm Calm - N/A   Clear
8:32 AM 69.8 °F - 68.0 °F 94% 30.04 in 10.0 mi Calm Calm - N/A   Clear
8:52 AM 73.4 °F - 68.0 °F 83% 30.05 in 10.0 mi Calm Calm - N/A   Clear
9:12 AM 73.4 °F - 68.0 °F 83% 30.05 in 10.0 mi Calm Calm - N/A   Scattered Clouds
9:32 AM 75.2 °F - 69.8 °F 83% 30.05 in 10.0 mi Calm Calm - N/A   Mostly Cloudy
9:53 AM 75.2 °F - 68.0 °F 78% 30.05 in 10.0 mi SSW 4.6 mph - N/A   Overcast
10:13 AM 75.2 °F - 69.8 °F 83% 30.05 in 10.0 mi SW 4.6 mph - N/A   Mostly Cloudy
10:33 AM 77.0 °F - 66.2 °F 69% 30.04 in 10.0 mi SSE 3.5 mph - N/A   Scattered Clouds
10:53 AM 75.2 °F - 68.0 °F 78% 30.04 in 10.0 mi SW 4.6 mph - N/A   Mostly Cloudy
11:13 AM 75.2 °F - 68.0 °F 78% 30.04 in 10.0 mi SSW 3.5 mph - N/A   Overcast
11:33 AM 77.0 °F - 68.0 °F 74% 30.03 in 10.0 mi SW 3.5 mph - N/A   Overcast
11:53 AM 77.0 °F - 68.0 °F 74% 30.03 in 10.0 mi SW 4.6 mph - N/A   Overcast
12:13 PM 78.8 °F - 69.8 °F 74% 30.02 in 10.0 mi SW 4.6 mph - N/A   Overcast
12:33 PM 78.8 °F - 68.0 °F 69% 30.02 in 10.0 mi SW 6.9 mph - N/A   Mostly Cloudy
12:53 PM 78.8 °F - 68.0 °F 69% 30.01 in 10.0 mi SW 6.9 mph - N/A   Overcast
1:13 PM 78.8 °F - 68.0 °F 69% 30.01 in 10.0 mi SW 5.8 mph - N/A   Overcast
1:33 PM 78.8 °F - 68.0 °F 69% 30.01 in 10.0 mi SW 8.1 mph - N/A   Overcast
1:53 PM 78.8 °F - 68.0 °F 69% 30.01 in 10.0 mi SSW 6.9 mph - N/A   Overcast
2:13 PM 78.8 °F - 68.0 °F 69% 30.00 in 10.0 mi SW 8.1 mph - N/A   Overcast
2:33 PM 78.8 °F - 68.0 °F 69% 29.99 in 10.0 mi South 5.8 mph - N/A   Overcast
2:53 PM 80.6 °F 83.2 °F 68.0 °F 65% 29.99 in 10.0 mi SSW 8.1 mph - N/A   Overcast
3:13 PM 80.6 °F 83.2 °F 68.0 °F 65% 29.97 in 10.0 mi South 4.6 mph - N/A   Mostly Cloudy
3:33 PM 80.6 °F 83.2 °F 68.0 °F 65% 29.97 in 10.0 mi SSW 4.6 mph - N/A   Scattered Clouds
3:53 PM 80.6 °F 83.2 °F 68.0 °F 65% 29.96 in 10.0 mi South 5.8 mph - N/A   Scattered Clouds
4:13 PM 80.6 °F 83.2 °F 68.0 °F 65% 29.96 in 10.0 mi SSW 5.8 mph - N/A   Mostly Cloudy
4:33 PM 80.6 °F 83.2 °F 68.0 °F 65% 29.96 in 10.0 mi SSW 4.6 mph - N/A   Scattered Clouds
4:53 PM 80.6 °F 83.2 °F 68.0 °F 65% 29.95 in 10.0 mi South 5.8 mph - N/A   Scattered Clouds
5:13 PM 80.6 °F 83.2 °F 68.0 °F 65% 29.95 in 10.0 mi SSW 3.5 mph - N/A   Scattered Clouds
5:33 PM 80.6 °F 83.2 °F 68.0 °F 65% 29.95 in 10.0 mi SSW 5.8 mph - N/A   Clear
5:53 PM 80.6 °F 83.2 °F 68.0 °F 65% 29.95 in 10.0 mi South 3.5 mph - N/A   Clear
6:13 PM 80.6 °F 83.2 °F 68.0 °F 65% 29.94 in 10.0 mi South 4.6 mph - N/A   Clear
6:33 PM 78.8 °F - 68.0 °F 69% 29.94 in 10.0 mi South 8.1 mph - N/A   Clear
6:54 PM 78.8 °F - 68.0 °F 69% 29.93 in 10.0 mi South 5.8 mph - N/A   Clear
7:14 PM 77.0 °F - 68.0 °F 74% 29.93 in 10.0 mi South 4.6 mph - N/A   Clear
7:34 PM 75.2 °F - 68.0 °F 78% 29.93 in 10.0 mi South 4.6 mph - N/A   Clear
7:54 PM 75.2 °F - 68.0 °F 78% 29.93 in 10.0 mi South 4.6 mph - N/A   Clear
8:14 PM 75.2 °F - 69.8 °F 83% 29.93 in 10.0 mi Calm Calm - N/A   Clear
8:34 PM 73.4 °F - 68.0 °F 83% 29.93 in 10.0 mi South 3.5 mph - N/A   Clear
8:54 PM 73.4 °F - 68.0 °F 83% 29.93 in 10.0 mi SSE 3.5 mph - N/A   Clear
9:14 PM 73.4 °F - 68.0 °F 83% 29.93 in 10.0 mi South 3.5 mph - N/A   Clear
9:34 PM 75.2 °F - 71.6 °F 89% 29.93 in 10.0 mi South 6.9 mph - N/A   Clear
9:54 PM 75.2 °F - 69.8 °F 83% 29.93 in 10.0 mi South 8.1 mph - N/A   Clear
10:14 PM 75.2 °F - 69.8 °F 83% 29.93 in 10.0 mi South 5.8 mph - N/A   Clear
10:34 PM 75.2 °F - 71.6 °F 89% 29.93 in 10.0 mi South 4.6 mph - N/A   Clear
10:54 PM 75.2 °F - 71.6 °F 89% 29.94 in 10.0 mi SSW 5.8 mph - N/A   Clear
11:14 PM 75.2 °F - 71.6 °F 89% 29.94 in 10.0 mi South 5.8 mph - N/A   Clear
11:34 PM 73.4 °F - 69.8 °F 88% 29.94 in 10.0 mi South 4.6 mph - N/A   Clear
11:54 PM 73.4 °F - 69.8 °F 88% 29.95 in 10.0 mi South 4.6 mph - N/A   Clear